Location: Byszew
(52.1813°N, 19.2693°E)
Time: 12:08:08
(UTC+00:00)

Cosmos 1980 Rocket - Visible Passes

Search period start: 16 June 2021 00:00
Search period end: 26 June 2021 00:00
Orbit: 830 x 848 km, 71.0° (Epoch: 15 June)

Date Brightness Start Highest point End Pass type
(mag) Time Alt. Az. Time Alt. Az. Time Alt. Az.
16 Jun 5.6 00:15:03 10° N 00:17:18 12° NNE 00:19:33 10° NE visible
16 Jun 4.4 20:23:53 10° WSW 20:28:48 30° NW 20:33:43 10° NNE visible
16 Jun 5.5 22:12:16 10° NW 22:14:46 13° NNW 22:17:16 10° N visible
16 Jun 5.6 23:59:19 10° N 00:01:29 12° NNE 00:03:39 10° NE visible
17 Jun 4.4 20:08:03 10° WSW 20:13:02 31° NW 20:18:01 10° NNE visible
17 Jun 5.5 21:56:21 10° NW 21:58:57 13° NNW 22:01:33 10° N visible
17 Jun 5.7 23:43:35 10° N 23:45:40 12° N 23:47:45 10° NNE visible
18 Jun 4.9 01:27:14 10° NNW 01:31:50 25° NE 01:36:24 10° E visible
18 Jun 4.4 19:52:14 10° WSW 19:57:16 32° NW 20:02:18 10° NNE visible
18 Jun 5.6 21:40:27 10° NW 21:43:09 13° NNW 21:45:50 10° NNE visible
18 Jun 5.8 23:27:51 10° N 23:29:51 12° N 23:31:51 10° NNE visible
19 Jun 4.9 01:11:30 10° NNW 01:16:03 24° NE 01:20:34 10° E visible
19 Jun 5.6 21:24:33 10° NW 21:27:20 14° NNW 21:30:07 10° NNE visible
19 Jun 5.8 23:12:06 10° N 23:14:02 12° N 23:15:57 10° NNE visible
20 Jun 4.9 00:55:48 10° NNW 01:00:16 24° NE 01:04:43 10° E visible
20 Jun 5.6 21:08:40 10° NW 21:11:31 14° NNW 21:14:23 10° NNE visible
20 Jun 5.7 22:56:22 10° N 22:58:13 11° N 23:00:04 10° NNE visible
21 Jun 4.9 00:40:06 10° NNW 00:44:29 23° NE 00:48:52 10° E visible
21 Jun 5.5 20:52:46 10° NW 20:55:43 14° NNW 20:58:40 10° NNE visible
21 Jun 5.7 22:40:37 10° N 22:42:24 11° N 22:44:10 10° NNE visible
22 Jun 5.0 00:24:23 10° NNW 00:28:42 22° NE 00:33:00 10° E visible
22 Jun 5.4 20:36:52 10° NW 20:39:55 15° NNW 20:42:57 10° NNE visible
22 Jun 5.6 22:24:51 10° NNW 22:26:35 11° N 22:28:17 10° NNE visible
23 Jun 5.0 00:08:40 10° NNW 00:12:55 21° NNE 00:17:09 10° E visible
23 Jun 5.3 20:20:57 10° WNW 20:24:06 15° NNW 20:27:14 10° NNE visible
23 Jun 5.6 22:09:06 10° NNW 22:10:45 11° N 22:12:25 10° NNE visible
23 Jun 5.0 23:52:58 10° NNW 23:57:08 21° NNE 00:01:17 10° E visible
24 Jun 5.3 20:05:04 10° WNW 20:08:18 15° NNW 20:11:32 10° NNE visible
24 Jun 5.5 21:53:20 10° NNW 21:54:56 11° N 21:56:33 10° NNE visible
24 Jun 4.9 23:37:15 10° NNW 23:41:20 20° NNE 23:45:25 10° ENE visible
25 Jun 2.7 01:20:51 10° NNW 01:26:27 66° NE 01:32:01 10° SE visible
25 Jun 5.5 21:37:33 10° NNW 21:39:07 11° N 21:40:42 10° NNE visible
25 Jun 4.9 23:21:32 10° NNW 23:25:33 19° NNE 23:29:32 10° ENE visible
